Atmospheric History
12/06/2017 18:33  to  12/7/2017 18:33
Change End Date:
To complete the export process:
1) Select all of the data below
2) Copy the data to the clipboard
3) Open a word processor such as Notepad
4) Paste the data into the word processor
5) Save the file

Date/Time (MDT), AirTemp, RH, Dewpoint ,AvgWindSpeed, GustWindSpeed, WindDirection, PrecipType, PrecipIntensity, PrecipAccumulation, PrecipRate
12/07/2017 18:28, 31, 40, 10 ,6, 8, SW, Yes, , ,  
12/07/2017 18:26, 31, 40, 10 ,6, 7, SW, Yes, , ,  
12/07/2017 18:18, 31, 40, 10 ,6, 7, SW, Yes, , ,  
12/07/2017 18:11, 31, 39, 9 ,4, 7, S, Yes, , ,  
12/07/2017 18:08, 32, 39, 10 ,2, 6, SW, Yes, , ,  
12/07/2017 17:57, 31, 40, 9 ,2, 6, S, Yes, , ,  
12/07/2017 17:56, 30, 40, 9 ,3, 6, S, Yes, , ,  
12/07/2017 17:47, 31, 39, 9 ,2, 4, SW, Yes, , ,  
12/07/2017 17:41, 32, 38, 10 ,2, 5, S, Yes, , ,  
12/07/2017 17:37, 33, 37, 10 ,2, 6, S, Yes, , ,  
12/07/2017 17:27, 33, 38, 10 ,6, 7, SE, Yes, , ,  
12/07/2017 17:26, 32, 39, 10 ,4, 7, SE, Yes, , ,  
12/07/2017 17:17, 30, 40, 9 ,3, 4, S, Yes, , ,  
12/07/2017 17:11, 30, 39, 9 ,2, 4, S, Yes, , ,  
12/07/2017 17:07, 31, 39, 9 ,1, 6, S, Yes, , ,  
12/07/2017 16:57, 33, 37, 10 ,4, 6, SW, Yes, , ,  
12/07/2017 16:56, 33, 37, 10 ,4, 6, SW, Yes, , ,  
12/07/2017 16:47, 34, 37, 10 ,4, 7, S, Yes, , ,  
12/07/2017 16:41, 33, 38, 10 ,5, 6, S, Yes, , ,  
12/07/2017 16:37, 33, 38, 10 ,3, 7, SW, Yes, , ,  
12/07/2017 16:27, 33, 39, 11 ,6, 9, SW, Yes, , ,  
12/07/2017 16:26, 33, 39, 11 ,7, 9, SW, Yes, , ,  
12/07/2017 16:17, 31, 40, 10 ,3, 6, SW, Yes, , ,  
12/07/2017 16:11, 32, 39, 10 ,4, 6, SW, Yes, , ,  
12/07/2017 16:07, 32, 39, 10 ,4, 6, S, None, None, ,  
12/07/2017 15:57, 32, 38, 10 ,4, 7, S, Yes, , ,  
12/07/2017 15:56, 32, 38, 10 ,4, 7, SW, Yes, , ,  
12/07/2017 15:47, 33, 37, 10 ,3, 6, SW, None, None, ,  
12/07/2017 15:41, 34, 36, 10 ,5, 7, SW, None, None, ,  
12/07/2017 15:37, 33, 37, 10 ,7, 9, S, Yes, , ,  
12/07/2017 15:27, 34, 37, 11 ,9, 11, SW, None, None, ,  
12/07/2017 15:26, 34, 37, 11 ,9, 11, SW, None, None, ,  
12/07/2017 15:17, 35, 37, 11 ,2, 6, SW, None, None, ,  
12/07/2017 15:11, 35, 36, 11 ,3, 5, S, None, None, ,  
12/07/2017 15:06, 34, 36, 11 ,2, 6, S, None, None, ,  
12/07/2017 14:56, 34, 36, 10 ,6, 7, S, None, None, ,  
12/07/2017 14:46, 34, 36, 10 ,4, 5, SW, Yes, , ,  
12/07/2017 14:41, 35, 36, 10 ,4, 5, SW, None, None, ,  
12/07/2017 14:36, 35, 35, 10 ,3, 9, SW, None, None, ,  
12/07/2017 14:27, 35, 35, 10 ,7, 8, SW, None, None, ,  
12/07/2017 14:26, 35, 35, 10 ,7, 8, SW, None, None, ,  
12/07/2017 14:16, 36, 35, 11 ,6, 8, SW, None, None, ,  
12/07/2017 14:12, 36, 35, 11 ,6, 9, SW, None, None, ,  
12/07/2017 14:06, 35, 35, 11 ,7, 9, SW, None, None, ,  
12/07/2017 13:57, 35, 36, 10 ,7, 9, S, None, None, ,  
12/07/2017 13:56, 35, 36, 10 ,7, 9, S, None, None, ,  
12/07/2017 13:46, 34, 36, 10 ,7, 8, SW, None, None, ,  
12/07/2017 13:42, 34, 36, 11 ,7, 9, SW, None, None, ,  
12/07/2017 13:36, 34, 36, 10 ,8, 9, SW, None, None, ,  
12/07/2017 13:27, 33, 37, 10 ,8, 10, SW, None, None, ,  
12/07/2017 13:26, 33, 37, 10 ,8, 10, S, None, None, ,  
12/07/2017 13:16, 33, 37, 10 ,9, 11, SW, None, None, ,  
12/07/2017 13:12, 33, 37, 10 ,10, 11, S, None, None, ,  
12/07/2017 13:06, 34, 37, 10 ,9, 9, SW, None, None, ,  
12/07/2017 12:57, 33, 37, 11 ,7, 8, S, None, None, ,  
12/07/2017 12:56, 33, 37, 10 ,7, 8, SW, None, None, ,  
12/07/2017 12:46, 32, 38, 10 ,7, 9, SW, None, None, ,  
12/07/2017 12:42, 32, 39, 10 ,7, 10, SW, None, None, ,  
12/07/2017 12:36, 32, 38, 10 ,9, 10, S, None, None, ,  
12/07/2017 12:27, 32, 39, 10 ,7, 9, SW, None, None, ,  
12/07/2017 12:26, 32, 39, 10 ,7, 9, SW, None, None, ,  
12/07/2017 12:16, 31, 40, 10 ,9, 9, SW, Yes, , ,  
12/07/2017 12:12, 31, 40, 9 ,7, 11, SW, None, None, ,  
12/07/2017 12:06, 31, 40, 9 ,9, 11, S, None, None, ,  
12/07/2017 11:57, 30, 40, 9 ,8, 10, S, Yes, , ,  
12/07/2017 11:56, 30, 40, 9 ,9, 10, SW, Yes, , ,  
12/07/2017 11:45, 30, 40, 9 ,9, 12, S, None, None, ,  
12/07/2017 11:42, 30, 40, 9 ,8, 12, SW, Yes, , ,  
12/07/2017 11:35, 30, 41, 9 ,7, 11, SW, Yes, , ,  
12/07/2017 11:27, 29, 41, 8 ,9, 10, S, None, None, ,  
12/07/2017 11:25, 29, 41, 8 ,9, 11, S, None, None, ,  
12/07/2017 11:15, 28, 42, 8 ,8, 11, SW, None, None, ,  
12/07/2017 11:12, 28, 42, 8 ,9, 12, SW, Yes, , ,  
12/07/2017 11:05, 28, 43, 8 ,10, 12, SW, Yes, , ,  
12/07/2017 10:57, 27, 43, 8 ,9, 12, S, Yes, , ,  
12/07/2017 10:55, 27, 44, 8 ,9, 12, SW, Yes, , ,  
12/07/2017 10:45, 26, 43, 7 ,11, 12, SW, Yes, , ,  
12/07/2017 10:42, 26, 44, 7 ,11, 12, SW, Yes, , ,  
12/07/2017 10:35, 26, 44, 7 ,9, 11, SW, Yes, , ,  
12/07/2017 10:27, 25, 45, 7 ,9, 11, S, Yes, , ,  
12/07/2017 10:25, 26, 44, 7 ,9, 11, S, Yes, , ,  
12/07/2017 10:15, 25, 44, 7 ,9, 11, S, Yes, , ,  
12/07/2017 10:12, 25, 44, 7 ,9, 11, SW, Yes, , ,  
12/07/2017 10:05, 26, 44, 7 ,9, 10, SW, Yes, , ,  
12/07/2017 09:57, 27, 43, 7 ,8, 10, SW, Yes, , ,  
12/07/2017 09:55, 27, 43, 7 ,8, 10, SW, Yes, , ,  
12/07/2017 09:45, 27, 43, 8 ,6, 10, SW, Yes, , ,  
12/07/2017 09:42, 27, 43, 8 ,7, 10, SW, Yes, , ,  
12/07/2017 09:35, 26, 44, 7 ,7, 10, SW, Yes, , ,  
12/07/2017 09:27, 25, 45, 7 ,7, 10, S, Yes, , ,  
12/07/2017 09:25, 24, 46, 6 ,7, 10, S, Yes, , ,  
12/07/2017 09:15, 24, 45, 6 ,9, 11, SW, Yes, , ,  
12/07/2017 09:12, 25, 45, 7 ,9, 11, SW, Yes, , ,  
12/07/2017 09:05, 24, 46, 6 ,9, 11, SW, Yes, , ,  
12/07/2017 08:57, 23, 47, 6 ,9, 11, SW, Yes, , ,  
12/07/2017 08:55, 22, 47, 5 ,9, 10, SW, Yes, , ,  
12/07/2017 08:45, 22, 47, 5 ,9, 10, S, Yes, , ,  
12/07/2017 08:41, 22, 48, 5 ,9, 10, SW, Yes, , ,  
12/07/2017 08:35, 21, 48, 5 ,8, 10, S, Yes, , ,  
12/07/2017 08:26, 22, 46, 5 ,9, 10, S, Yes, , ,  
12/07/2017 08:24, 22, 46, 5 ,9, 10, SW, Yes, , ,  
12/07/2017 08:14, 22, 46, 5 ,9, 10, S, Yes, , ,  
12/07/2017 08:11, 22, 46, 5 ,9, 10, SW, Yes, , ,  
12/07/2017 08:04, 22, 46, 5 ,9, 10, S, Yes, , ,  
12/07/2017 07:56, 23, 45, 5 ,9, 9, SW, Yes, , ,  
12/07/2017 07:54, 24, 44, 5 ,8, 9, SW, Yes, , ,  
12/07/2017 07:44, 25, 43, 6 ,7, 10, SW, Yes, , ,  
12/07/2017 07:41, 25, 44, 6 ,7, 10, SW, Yes, , ,  
12/07/2017 07:34, 24, 44, 6 ,7, 8, SW, Yes, , ,  
12/07/2017 07:26, 24, 44, 6 ,6, 7, SW, Yes, , ,  
12/07/2017 07:24, 24, 44, 6 ,6, 7, SW, Yes, , ,  
12/07/2017 07:14, 23, 45, 5 ,5, 6, SW, Yes, , ,  
12/07/2017 07:11, 23, 45, 5 ,4, 6, SW, Yes, , ,  
12/07/2017 07:04, 23, 45, 5 ,5, 6, SW, Yes, , ,  
12/07/2017 06:56, 23, 45, 5 ,3, 6, SW, Yes, , ,  
12/07/2017 06:54, 24, 44, 5 ,4, 7, SW, Yes, , ,  
12/07/2017 06:44, 25, 44, 6 ,5, 6, S, Yes, , ,  
12/07/2017 06:41, 25, 44, 6 ,4, 6, SW, Yes, , ,  
12/07/2017 06:34, 24, 44, 6 ,3, 6, S, Yes, , ,  
12/07/2017 06:26, 24, 45, 6 ,3, 6, SW, Yes, , ,  
12/07/2017 06:24, 24, 45, 6 ,3, 6, S, Yes, , ,  
12/07/2017 06:14, 23, 45, 5 ,4, 6, SW, Yes, , ,  
12/07/2017 06:11, 23, 45, 5 ,4, 6, SW, Yes, , ,  
12/07/2017 06:04, 24, 45, 5 ,4, 6, S, Yes, , ,  
12/07/2017 05:56, 24, 44, 6 ,4, 6, SW, Yes, , ,  
12/07/2017 05:54, 24, 45, 6 ,6, 6, SW, Yes, , ,  
12/07/2017 05:44, 24, 45, 6 ,4, 5, SW, Yes, , ,  
12/07/2017 05:41, 23, 46, 6 ,4, 5, S, Yes, , ,  
12/07/2017 05:34, 23, 46, 6 ,2, 5, SW, Yes, , ,  
12/07/2017 05:26, 23, 46, 6 ,4, 5, S, Yes, , ,  
12/07/2017 05:24, 23, 46, 6 ,4, 6, S, Yes, , ,  
12/07/2017 05:13, 23, 46, 5 ,2, 5, SW, Yes, , ,  
12/07/2017 05:11, 23, 46, 6 ,4, 5, SW, Yes, , ,  
12/07/2017 05:03, 23, 46, 6 ,2, 4, S, Yes, , ,  
12/07/2017 04:56, 23, 46, 6 ,4, 5, SW, Yes, , ,  
12/07/2017 04:53, 23, 47, 6 ,4, 5, S, Yes, , ,  
12/07/2017 04:43, 22, 47, 5 ,4, 5, S, Yes, , ,  
12/07/2017 04:41, 22, 47, 5 ,4, 5, S, Yes, , ,  
12/07/2017 04:33, 22, 47, 5 ,4, 5, S, Yes, , ,  
12/07/2017 04:26, 23, 47, 6 ,4, 5, S, Yes, , ,  
12/07/2017 04:23, 23, 47, 6 ,4, 4, S, Yes, , ,  
12/07/2017 04:13, 22, 47, 5 ,4, 4, S, Yes, , ,  
12/07/2017 04:11, 22, 47, 5 ,3, 4, S, Yes, , ,  
12/07/2017 04:03, 22, 47, 5 ,2, 5, SW, Yes, , ,  
12/07/2017 03:56, 22, 47, 5 ,3, 5, S, Yes, , ,  
12/07/2017 03:53, 22, 47, 5 ,4, 5, S, Yes, , ,  
12/07/2017 03:43, 23, 46, 6 ,4, 4, SW, Yes, , ,  
12/07/2017 03:41, 23, 47, 6 ,4, 4, S, Yes, , ,  
12/07/2017 03:33, 23, 47, 6 ,2, 4, SW, Yes, , ,  
12/07/2017 03:26, 23, 47, 6 ,4, 4, S, Yes, , ,  
12/07/2017 03:23, 23, 47, 6 ,3, 4, S, Yes, , ,  
12/07/2017 03:13, 22, 47, 5 ,3, 6, S, Yes, , ,  
12/07/2017 03:11, 22, 47, 5 ,4, 6, S, Yes, , ,  
12/07/2017 03:03, 23, 46, 6 ,4, 4, S, Yes, , ,  
12/07/2017 02:56, 23, 46, 6 ,4, 4, S, Yes, , ,  
12/07/2017 02:53, 23, 46, 6 ,4, 4, SW, Yes, , ,  
12/07/2017 02:43, 23, 47, 6 ,4, 5, S, Yes, , ,  
12/07/2017 02:41, 23, 47, 6 ,4, 5, S, Yes, , ,  
12/07/2017 02:33, 22, 47, 5 ,4, 5, S, Yes, , ,  
12/07/2017 02:26, 23, 46, 5 ,4, 6, S, Yes, , ,  
12/07/2017 02:23, 23, 46, 5 ,4, 6, S, Yes, , ,  
12/07/2017 02:13, 23, 46, 5 ,4, 6, S, Yes, , ,  
12/07/2017 02:11, 23, 46, 6 ,4, 5, SW, Yes, , ,  
12/07/2017 02:02, 23, 46, 5 ,4, 4, S, Yes, , ,  
12/07/2017 01:56, 23, 45, 6 ,4, 6, SW, Yes, , ,  
12/07/2017 01:52, 24, 45, 6 ,4, 6, SW, Yes, , ,  
12/07/2017 01:42, 24, 45, 6 ,6, 6, SW, Yes, , ,  
12/07/2017 01:41, 24, 45, 6 ,6, 6, SW, Yes, , ,  
12/07/2017 01:32, 24, 45, 6 ,4, 5, S, Yes, , ,  
12/07/2017 01:26, 24, 44, 6 ,3, 4, SW, Yes, , ,  
12/07/2017 01:22, 24, 44, 6 ,3, 4, SW, Yes, , ,  
12/07/2017 01:12, 25, 43, 6 ,4, 6, SW, Yes, , ,  
12/07/2017 01:11, 25, 43, 6 ,4, 6, SW, Yes, , ,  
12/07/2017 01:02, 27, 42, 7 ,4, 6, SW, Yes, , ,  
12/07/2017 00:56, 26, 44, 7 ,4, 6, SW, Yes, , ,  
12/07/2017 00:52, 25, 44, 7 ,2, 5, SW, Yes, , ,  
12/07/2017 00:42, 26, 43, 7 ,4, 6, SW, Yes, , ,  
12/07/2017 00:41, 26, 43, 7 ,4, 6, SW, Yes, , ,  
12/07/2017 00:32, 26, 43, 7 ,4, 7, S, Yes, , ,  
12/07/2017 00:26, 27, 42, 7 ,4, 7, S, Yes, , ,  
12/07/2017 00:22, 26, 43, 7 ,6, 7, S, Yes, , ,  
12/07/2017 00:12, 26, 44, 7 ,4, 6, S, Yes, , ,  
12/07/2017 00:11, 26, 45, 7 ,4, 6, SW, Yes, , ,  
12/07/2017 00:02, 25, 45, 7 ,4, 7, S, Yes, , ,  
12/06/2017 23:56, 26, 45, 7 ,6, 8, SW, Yes, , ,  
12/06/2017 23:52, 26, 45, 8 ,6, 7, SW, Yes, , ,  
12/06/2017 23:42, 26, 45, 8 ,6, 6, SW, Yes, , ,  
12/06/2017 23:41, 26, 45, 8 ,6, 6, S, Yes, , ,  
12/06/2017 23:32, 26, 45, 8 ,5, 6, SW, Yes, , ,  
12/06/2017 23:26, 26, 45, 8 ,4, 6, S, Yes, , ,  
12/06/2017 23:22, 26, 45, 8 ,4, 6, S, Yes, , ,  
12/06/2017 23:12, 26, 45, 8 ,4, 7, SW, Yes, , ,  
12/06/2017 23:11, 26, 45, 8 ,4, 7, S, Yes, , ,  
12/06/2017 23:02, 26, 46, 8 ,3, 7, SW, Yes, , ,  
12/06/2017 22:56, 26, 45, 8 ,6, 7, SW, Yes, , ,  
12/06/2017 22:51, 25, 47, 8 ,4, 6, SW, Yes, , ,  
12/06/2017 22:41, 25, 47, 8 ,3, 6, S, Yes, , ,  
12/06/2017 22:41, 25, 47, 8 ,3, 6, S, Yes, , ,  
12/06/2017 22:31, 25, 47, 8 ,4, 7, SW, Yes, , ,  
12/06/2017 22:26, 24, 48, 8 ,6, 7, S, Yes, , ,  
12/06/2017 22:21, 24, 48, 7 ,4, 6, SW, Yes, , ,  
12/06/2017 22:11, 24, 49, 7 ,6, 7, SW, Yes, , ,  
12/06/2017 22:11, 24, 49, 7 ,6, 7, S, Yes, , ,  
12/06/2017 22:01, 23, 50, 7 ,3, 4, SW, Yes, , ,  
12/06/2017 21:56, 24, 49, 7 ,3, 5, SW, Yes, , ,  
12/06/2017 21:51, 24, 49, 8 ,4, 6, SW, Yes, , ,  
12/06/2017 21:41, 23, 50, 7 ,4, 6, SW, Yes, , ,  
12/06/2017 21:41, 23, 50, 7 ,4, 6, SW, Yes, , ,  
12/06/2017 21:31, 22, 50, 7 ,2, 6, S, Yes, , ,  
12/06/2017 21:26, 22, 50, 7 ,2, 6, S, Yes, , ,  
12/06/2017 21:21, 22, 51, 7 ,3, 4, SW, Yes, , ,  
12/06/2017 21:11, 22, 51, 7 ,2, 5, W, Yes, , ,  
12/06/2017 21:11, 22, 51, 7 ,2, 5, W, Yes, , ,  
12/06/2017 21:01, 22, 51, 7 ,3, 8, SW, Yes, , ,  
12/06/2017 20:56, 23, 51, 7 ,4, 9, S, Yes, , ,  
12/06/2017 20:51, 23, 50, 7 ,7, 9, SW, Yes, , ,  
12/06/2017 20:41, 23, 50, 8 ,5, 7, SW, Yes, , ,  
12/06/2017 20:41, 23, 50, 8 ,5, 7, SW, Yes, , ,  
12/06/2017 20:31, 24, 50, 8 ,6, 7, SW, Yes, , ,  
12/06/2017 20:26, 24, 50, 8 ,4, 7, SW, Yes, , ,  
12/06/2017 20:21, 22, 51, 8 ,6, 7, SW, Yes, , ,  
12/06/2017 20:11, 22, 52, 7 ,2, 6, SW, Yes, , ,  
12/06/2017 20:11, 22, 52, 7 ,2, 6, SW, Yes, , ,  
12/06/2017 20:01, 22, 52, 8 ,4, 6, SW, Yes, , ,  
12/06/2017 19:56, 23, 52, 8 ,4, 6, S, Yes, , ,  
12/06/2017 19:50, 23, 52, 8 ,4, 9, S, Yes, , ,  
12/06/2017 19:41, 22, 54, 8 ,6, 9, SW, Yes, , ,  
12/06/2017 19:40, 22, 54, 8 ,5, 7, SW, Yes, , ,  
12/06/2017 19:30, 22, 54, 8 ,2, 4, SW, Yes, , ,  
12/06/2017 19:26, 22, 53, 8 ,1, 5, S, Yes, , ,  
12/06/2017 19:20, 22, 53, 8 ,4, 6, SW, Yes, , ,  
12/06/2017 19:11, 23, 53, 9 ,4, 5, S, Yes, , ,  
12/06/2017 19:10, 23, 53, 9 ,4, 5, S, Yes, , ,  
12/06/2017 19:00, 23, 53, 9 ,5, 6, S, Yes, , ,  
12/06/2017 18:56, 24, 52, 9 ,6, 6, SW, Yes, , ,  
12/06/2017 18:50, 23, 53, 9 ,6, 6, S, Yes, , ,  
12/06/2017 18:41, 23, 53, 9 ,5, 5, S, Yes, , ,  
12/06/2017 18:40, 23, 53, 9 ,4, 5, S, Yes, , ,  
Change End Date:

Copyright © 1998-2015 Vaisala, Inc.
All Rights Reserved
Send comments about the data to:
SCAN Web ® is a registered trademark of Vaisala, Inc.
SCAN Web Version 6.0